Regional Weather Roundup
Issued by NWS

Home | Current Version | Previous Version | Text Only | Print | Product List | Glossary Off
Versions: 1 2 3 4 5 6 7 8 9 10 11 12 13 14 15 16 17 18 19 20 21 22 23 24 25 26 27 28 29 30 31 32 33 34 35 36 37 38 39 40 41 42 43 44 45 46 47 48 49 50

000
ASUS45 KTFX 151910
RWRMT
MONTANA REGIONAL WEATHER ROUNDUP
NATIONAL WEATHER SERVICE GREAT FALLS MT
1200 PM MST FRI DEC 15 2017

NOTE: "FAIR" INDICATES FEW OR NO CLOUDS BELOW 12000 FEET WITH NO
SIGNIFICANT WEATHER AND/OR OBSTRUCTIONS TO VISIBILITY.

MTZ001>007-043-152000-
WEST OF THE DIVIDE

CITY           SKY/WX    TMP DP  RH WIND       PRES   REMARKS
KALISPELL      CLOUDY    29  26  89 S3        30.00F
MISSOULA       CLOUDY    25  24  96 SE3       30.04F FOG
BUTTE          FAIR      22  17  81 S3        29.97F
MULLAN PASS    LGT SNOW  27  22  81 SW9G20    29.93F WCI  18
ANACONDA         N/A     37  16  41 S18G26    29.93F WCI  27
DEER LODGE       N/A     14  12  92 CALM      29.99F VSB 0
EUREKA           N/A     30  27  86 MISG      29.99F
HAMILTON         N/A     21  19  93 CALM      30.02F VSB 3/4
LIBBY            N/A     28  27  93 CALM      30.01F
PLAINS           N/A     31  24  75 CALM      30.04F
RONAN            N/A     27  24  88 NW3       30.04F
$$

MTZ008-052>055-152000-
SOUTHWEST MONTANA

CITY           SKY/WX    TMP DP  RH WIND       PRES   REMARKS
BOZEMAN        FAIR      21  19  92 S3        29.99F
DILLON         FAIR      34  23  64 SW15      30.02F WCI  24
W YELLOWSTONE  CLOUDY    27  21  80 S12       30.16F WCI  16
ENNIS          CLOUDY    32  25  74 S25G35    30.09S WCI  19
THREE FORKS      N/A     18  16  92 CALM      29.99F
TWIN BRIDGES     N/A     35  21  57 CALM      30.01F
$$

MTZ009-010-012-014-046-048-049-054-152000-
EAST SLOPES AND CENTRAL MONTANA

CITY           SKY/WX    TMP DP  RH WIND       PRES   REMARKS
CUT BANK       FAIR      44  23  43 W24       29.73F
GREAT FALLS    FAIR      47  14  26 SW37G51   29.76F
MALMSTROM AFB  PTSUNNY   48  15  26 SW29G40   29.77F
HELENA         FAIR      23  20  88 NE3       29.97F
BOWMANS CRNR   FAIR      34  19  54 S22       29.79F WCI  22
CHOTEAU          N/A     50  19  29 SW9G18    29.78F
FAIRFIELD      FAIR      46  17  32 S29G36    29.74F
POWER          FAIR      45  17  32 SW21      29.76F
RAYNESFORD     PTSUNNY   51  14  23 CALM      29.78F
ULM            PTSUNNY   47  15  28 SW24G31   29.80F
$$

MTZ011-013-016-021-045-047-050-051-152000-
NORTH CENTRAL MONTANA

CITY           SKY/WX    TMP DP  RH WIND       PRES   REMARKS
HAVRE          FAIR      49  21  33 SW18      29.68F
LEWISTOWN      FAIR      45  24  43 SW18      29.73F
N BAR RANCH    FAIR      52  12  20 N6        29.73F
CHINOOK          N/A     52  21  30 W25G33    29.64F
DENTON         PTSUNNY   54  14  20 MISG      29.66F
GEYSER         PTSUNNY   51  14  23 W29G40    29.71F
GRASS RANGE    FAIR      51  15  24 W12       29.67F
STANFORD       FAIR      53  14  21 W31G40    29.70F
WINIFRED       FAIR      53  15  22 W16       29.69F
$$

MTZ017>020-022>027-061-062-152000-
NORTHEAST MONTANA

CITY           SKY/WX    TMP DP  RH WIND       PRES   REMARKS
GLASGOW        FAIR      37  23  56 W5        29.64F
GLENDIVE       FAIR      48  20  32 W13       29.66F
JORDAN           N/A     45  20  36 W10       29.67F
SIDNEY         FAIR      45  22  40 W22G28    29.61F
WOLF POINT     FAIR      42  24  49 W10       29.63F
MALTA          SUNNY     46  25  42 W12       29.64F
PLENTYWOOD       N/A     43  23  45 W15       29.57F
POPLAR           N/A     37  23  56 SW7       29.63F
SCOBEY           N/A     41  21  44 SW10      29.60F
$$

MTZ028>42-056>058-152000-
SOUTHCENTRAL AND SOUTHEAST MONTANA

CITY           SKY/WX    TMP DP  RH WIND       PRES   REMARKS
BAKER          FAIR      44  26  49 W18       29.69F
BILLINGS       CLOUDY    45  17  32 SW22G31   29.80F
LIVINGSTON     FAIR      41  23  48 SW45G61   29.86F
MILES CITY     FAIR      47  21  35 W6        29.70F
BIG TIMBER     SUNNY     46  16  29 W47G56    29.84F
EKALAKA          N/A     42  20  41 SW13      29.71F
FORSYTH          N/A     50  16  25 SW10      29.70F
LAUREL           N/A     45  18  33 SW17      29.81F
ROUNDUP          N/A     52  12  20 SW15      29.68F
$$

REGIONAL REPORTS...DAKOTAS

CITY           SKY/WX    TMP DP  RH WIND       PRES   REMARKS
WILLISTON      PTSUNNY   37  28  70 W6        29.59F
MINOT          CLOUDY    38  25  59 SW9       29.56F WCI  31
DICKINSON      FAIR      44  24  45 W22       29.59F
BEACH          FAIR      43  27  52 W16G24    29.68F
CROSBY         FAIR      39  27  60 W7        29.55F
TIOGA          FAIR      37  28  70 W10       29.56F WCI  30
WATFORD CITY   FAIR      41  23  48 W16       29.59F
BISMARCK       CLOUDY    39  25  57 SW7       29.62F
GRAND FORKS    CLOUDY    20  17  88 S15       29.74F WCI   6
FARGO          CLOUDY    24  20  84 SE8       29.74F WCI  15
BUFFALO SD       N/A     46  26  45 W16       29.61F
RAPID CITY     FAIR      54  15  21 S10       29.75F
$$

REGIONAL REPORTS...WYOMING/IDAHO/WASHINGTON

CITY           SKY/WX    TMP DP  RH WIND       PRES   REMARKS
GILLETTE       FAIR      48  19  31 SW17      29.78F
SHERIDAN       FAIR      43  20  39 NE3       29.77F
BUFFALO WY     FAIR      58   3  11 S13       29.79F
CODY           FAIR      29  20  69 VRB5      29.90F
YELLOWSTONE LA   N/A     22  19  89 CALM      30.16F
IDAHO FALLS    PTSUNNY   24  22  91 CALM      30.25F
SALMON         CLOUDY    28  21  75 E7        30.20F WCI  21
BOISE          CLOUDY    26  21  81 S6        30.28F WCI  19
SPOKANE        HVY SNOW  27  27 100 W9        30.12R VSB 1/4 WCI  18
$$

REGIONAL REPORTS...ALBERTA

CITY           SKY/WX    TMP DP  RH WIND       PRES   REMARKS
EDMONTON       SUNNY     41  21  45 W16G30    29.64F
CALGARY        PTSUNNY   43  27  52 N9        29.71S
LETHBRIDGE     PTSUNNY   46  27  46 W29G35    29.69F
MEDICINE HAT   PTSUNNY   43  25  49 NW12      29.66S
$$

REGIONAL REPORTS...SASKATCHEWAN

CITY           SKY/WX    TMP DP  RH WIND       PRES   REMARKS
SWIFT CURRENT  MOSUNNY   39  21  48 W15       29.57F WCI  31
REGINA         CLOUDY    37  30  75 W7        29.50F
SASKATOON      CLOUDY    37  32  81 W13       29.49F WCI  29
$$



USA.gov is the U.S. government's official web portal to all federal, state and local government web resources and services.